Weather History for Nausori, Fiji

Change the Weather History Date:

Monday, January 14, 2013

  Actual Average Record
Temperature  
Mean Temperature 80 °F -  
Max Temperature 84 °F - - ()
Min Temperature 77 °F - - ()
Cooling Degree Days 16    
Growing Degree Days 30 (Base 50)    
Moisture  
Dew Point 78 °F    
Average Humidity 93    
Maximum Humidity 100    
Minimum Humidity 78    
Precipitation  
Precipitation 1.30 in - - ()
Sea Level Pressure  
Sea Level Pressure 29.62 in    
Wind  
Wind Speed 0 mph ()    
Max Wind Speed 7 mph    
Max Gust Speed -    
Visibility 11.4 miles    
Events Rain    
T = Trace of Precipitation, MM = Missing Value Source: Averaged Metar Reports

Daily Weather History Graph

Daily Weather History Graph

Search for Another Location

Airport:

Trip Planner

Search our weather history database for the weather conditions in past years. The results will help you decide how hot, cold, wet, or windy it might be!

Date:

Astronomy

Jan. 14, 2013 Rise Set
Actual Time 6:41 AM FJST 7:47 PM FJST
Civil Twilight 6:17 AM FJST 8:11 PM FJST
Nautical Twilight 5:49 AM FJST 8:39 PM FJST
Astronomical Twilight 5:20 AM FJST 9:08 PM FJST
Moon 8:47 AM FJST (1/14) 9:34 PM FJST (1/14)
Length of Visible Light 13h 53m
Length of Day
13h 06m
Waxing Crescent, 6% of the Moon is Illuminated
Jan 14
Waxing Crescent
Jan 19
First Quarter
Jan 27
Full
Feb 4
Last Quarter
Feb 10
New

Hourly Weather History & Observations

Time (FJST) Temp. Heat Index Dew Point Humidity Pressure Visibility Wind Dir Wind Speed Gust Speed Precip Events Conditions
12:00 AM 78.8 °F - 78.8 °F 100% 29.65 in 12.4 mi Calm Calm - N/A Rain Light Rain Showers
1:00 AM 78 °F - 78 °F 100% 29.65 in 6 mi Calm Calm - - Rain Heavy Rain
1:00 AM 78.8 °F - 78.8 °F 100% 29.65 in 6.2 mi Calm Calm - N/A Rain Light Rain
2:00 AM 77.0 °F - 77.0 °F 100% 29.62 in 12.4 mi Calm Calm - N/A Rain Light Rain Showers
3:00 AM 77.0 °F - 77.0 °F 100% 29.62 in 6.2 mi Calm Calm - N/A Rain Light Rain
4:00 AM 77 °F - 77 °F 99% 29.63 in 6 mi Calm Calm - - Rain Light Rain Showers
4:00 AM 77.0 °F - 77.0 °F 100% 29.62 in 6.2 mi Calm Calm - N/A Rain Light Rain Showers
5:00 AM 77.0 °F - 77.0 °F 100% 29.62 in 12.4 mi Calm Calm - N/A   Overcast
6:00 AM 77.0 °F - 77.0 °F 100% 29.62 in 18.6 mi Calm Calm - N/A   Mostly Cloudy
7:00 AM 77 °F - 77 °F 98% 29.65 in 12 mi Calm Calm - -   Partly Cloudy
7:00 AM 77.0 °F - 77.0 °F 100% 29.62 in 24.9 mi Calm Calm - N/A   Mostly Cloudy
8:00 AM 78.8 °F - 77.0 °F 94% 29.65 in 31.1 mi Calm Calm - N/A   Mostly Cloudy
9:00 AM 80.6 °F 86.2 °F 75.2 °F 84% 29.65 in 31.1 mi Calm Calm - N/A   Scattered Clouds
10:00 AM 81 °F - 78 °F 88% 29.66 in 12 mi Calm Calm - - Rain Light Rain Showers
10:00 AM 80.6 °F 88.1 °F 78.8 °F 94% 29.65 in 24.9 mi Calm Calm - N/A   Mostly Cloudy
11:00 AM 82.4 °F 89.5 °F 75.2 °F 79% 29.62 in 24.9 mi Calm Calm - N/A   Mostly Cloudy
12:00 PM 80.6 °F 86.2 °F 75.2 °F 84% 29.62 in 24.9 mi Calm Calm - N/A   Mostly Cloudy
1:00 PM 81 °F - 75 °F 78% 29.62 in 12 mi Calm Calm - -   Partly Cloudy
1:00 PM 82.4 °F 90.9 °F 77.0 °F 84% 29.59 in 28.0 mi Calm Calm - N/A   Mostly Cloudy
2:00 PM 84.2 °F 98.3 °F 80.6 °F 89% 29.59 in 28.0 mi NNE 6.9 mph - N/A   Mostly Cloudy
3:00 PM 84.2 °F 96.1 °F 78.8 °F 84% 29.59 in 28.0 mi NE 5.8 mph - N/A   Mostly Cloudy
4:00 PM 82 °F - 80 °F 91% 29.59 in 12 mi Calm Calm - - Rain Light Rain Showers
4:00 PM 82.4 °F 94.0 °F 80.6 °F 94% 29.59 in 18.6 mi Calm Calm - N/A   Mostly Cloudy
5:00 PM 82.4 °F 90.9 °F 77.0 °F 84% 29.59 in 18.6 mi Calm Calm - N/A   Mostly Cloudy
6:00 PM 80.6 °F 88.1 °F 78.8 °F 94% 29.59 in 31.1 mi Calm Calm - N/A   Mostly Cloudy
7:00 PM 81 °F - 78 °F 89% 29.62 in 31 mi Calm Calm - -   Partly Cloudy
7:00 PM 80.6 °F 88.1 °F 78.8 °F 94% 29.62 in 31.1 mi Calm Calm - N/A   Mostly Cloudy
8:00 PM 80.6 °F 88.1 °F 78.8 °F 94% 29.62 in 28.0 mi Calm Calm - N/A   Mostly Cloudy
9:00 PM 78.8 °F - 77.0 °F 94% 29.62 in 24.9 mi Calm Calm - N/A   Mostly Cloudy
10:00 PM 78.8 °F - 77.0 °F 94% 29.62 in 24.9 mi Calm Calm - N/A   Mostly Cloudy
11:00 PM 78.8 °F - 77.0 °F 94% 29.65 in 24.9 mi Calm Calm - N/A   Mostly Cloudy